Tracking 29892 objects as of 21-Nov-2024
HD Live streaming from Space Station
objects crossing your sky now

LEASAT 1 DEB *

Track LEASAT 1 DEB * now!
10-day predictions


NORAD ID: 18904
Int'l Code: 1984-113F
Perigee: 332.9 km
Apogee: 8,256.2 km
Inclination: 26.6 °
Period: 182.7 minutes
Semi major axis: 10665 km
RCS: 0.1717 m2 (medium)
Launch date: November 8, 1984
Source: United States (US)
Launch site: AIR FORCE EASTERN TEST RANGE (AFETR)

Note: This is SATELLITE DEBRIS
Your satellite tracking list
Your tracking list is empty




NASA's NSSDC Master Catalog

Two Line Element Set (TLE):
1 18904U 84113F   24325.06875890  .00050571  00000-0  64875-2 0  9998
2 18904  26.6281 283.6357 3714406 189.9599 160.0146  7.88184301318716
Source of the keplerian elements: AFSPC